Regional Weather Roundup
Issued by NWS

Home | Current Version | Previous Version | Graphics & Text | Print | Product List | Glossary On
Versions: 1 2 3 4 5 6 7 8 9 10 11 12 13 14 15 16 17 18 19 20 21 22 23 24 25 26 27 28 29 30 31 32 33 34 35 36 37 38 39 40 41 42 43 44 45 46 47 48 49 50
000
ASUS43 KBIS 310902
RWRND

NORTH DAKOTA REGIONAL WEATHER ROUNDUP
NATIONAL WEATHER SERVICE BISMARCK ND
400 AM CDT SUN JUL 31 2016

NOTE: "FAIR" INDICATES FEW OR NO CLOUDS BELOW 12,000 FEET WITH NO
SIGNIFICANT WEATHER AND/OR OBSTRUCTIONS TO VISIBILITY.


NDZ001>003-009>011-017-311000-
NORTHWEST NORTH DAKOTA

CITY           SKY/WX    TMP DP  RH WIND       PRES   REMARKS
WILLISTON      CLOUDY    72  61  68 S5        29.68F
MINOT          CLOUDY    66  61  84 E6        29.75S
MINOT AFB      CLOUDY    61  60  95 SE7       29.74S
$$

NDZ018>021-031>035-040>046-311000-
SOUTHWEST NORTH DAKOTA

CITY           SKY/WX    TMP DP  RH WIND       PRES   REMARKS
BISMARCK       CLEAR     67  64  90 SE9       29.77S
DICKINSON      CLOUDY    66  60  81 W13G24    29.78R
GARRISON         N/A     65  63  93 SE6       29.76S
HETTINGER ARPT CLEAR     65  58  78 S7        29.80R
$$

NDZ004>008-012>016-024-026-027-054-311000-
NORTHEAST NORTH DAKOTA

CITY           SKY/WX    TMP DP  RH WIND       PRES   REMARKS
GRAND FORKS    CLEAR     62  58  86 SE7       29.86F
GRND FRKS AFB  CLEAR     64  57  80 S7        29.86F
DEVILS LAKE    CLOUDY    67  61  81 SE13      29.83F
$$

NDZ022-023-025-028>030-036>039-047>053-311000-
SOUTHEAST NORTH DAKOTA

CITY           SKY/WX    TMP DP  RH WIND       PRES   REMARKS
FARGO          CLEAR     67  56  67 SE14G20   29.88F
JAMESTOWN      CLEAR     63  60  90 SE10      29.83F
$$




USA.gov is the U.S. government's official web portal to all federal, state and local government web resources and services.